[[{"header":{"parameterUnit":"m.s-1","parameterCategory":1,"la1":30.2991,"la2":30.254,"lo1":-89.0895,"lo2":-89.0444,"dy":0.0017,"dx":0.0017,"nx":28,"ny":28,"refTime":"2024-05-30T03:00:00:Z","depth":0,"parameterNumber":2,"parameterNumberName":"U-component_of_WINDS"},"data":[0,0,0,0,0,0,0,0,0,0,0,0,0,0,0,0,0,0,0,0,0,0,0,0,0,0,0,0,0,0,0,0,0,0,0,0,0,0,0,0,0,0,0,0,0,0,0,0,0,0,0,0,0,0,0,0,0,0,-4.647,-4.647,0,-4.6426,-4.6425,-4.6425,-4.6306,-4.6304,-4.6301,-4.6299,-4.6256,-4.6257,-4.6258,0,0,0,0,0,0,0,0,0,0,0,0,0,-4.6457,-4.6458,-4.647,-4.647,-4.6469,-4.6426,-4.6425,-4.6425,-4.6307,-4.6304,-4.6301,-4.6298,-4.6255,-4.6257,-4.6258,0,0,0,0,0,0,0,0,0,0,0,0,0,-4.6443,-4.6458,-4.647,-4.6405,-4.6399,-4.6426,-4.6425,-4.6425,-4.6307,-4.6304,-4.63,-4.6296,-4.6255,-4.6257,-4.6259,-4.6346,0,0,-4.6264,-4.6265,0,0,0,0,0,0,0,0,-4.6444,-4.6443,-4.6415,-4.641,-4.6403,-4.6368,-4.6405,-4.6398,-4.6308,-4.6342,-4.6299,-4.6294,-4.6296,-4.6294,-4.6295,-4.6344,-4.6342,-4.6264,-4.6265,-4.6266,-4.6267,0,0,0,0,0,0,0,-4.6445,-4.6445,-4.6453,-4.6415,-4.6407,-4.6379,-4.6373,-4.6403,-4.6341,-4.6339,-4.633,-4.6327,-4.6292,-4.6293,-4.6293,-4.6342,-4.6264,-4.6266,-4.6267,-4.6268,-4.6464,-4.6468,0,0,0,0,0,0,-4.6455,-4.6446,-4.6454,-4.6451,-4.6414,-4.6383,-4.6376,-4.6383,-4.6341,-4.633,-4.633,-4.6321,-4.6292,-4.6291,-4.6291,-4.6392,-4.6266,-4.6268,-4.6269,-4.646,-4.6465,-4.6469,0,0,0,0,0,0,-4.6455,-4.6457,-4.6456,-4.6446,-4.6444,-4.6387,-4.6396,-4.6384,-4.6385,-4.6334,-4.6322,-4.6342,-4.6289,-4.6288,-4.6334,-4.6389,-4.6269,-4.627,-4.6455,-4.6461,-4.6467,-4.6595,0,0,0,0,0,0,-4.6455,-4.6457,-4.6489,-4.6448,-4.6445,-4.6499,-4.6399,-4.6386,-4.6388,-4.6376,-4.6342,-4.6333,-4.6286,-4.6332,-4.6336,-4.6389,-4.6272,-4.645,-4.6458,-4.6465,-4.6586,-4.6605,-4.6622,0,0,0,0,0,-4.6455,-4.6527,-4.6491,-4.6493,-4.6483,-4.6502,-4.6501,-4.6444,-4.6393,-4.6425,-4.6393,-4.6334,-4.6382,-4.6337,-4.6341,-4.6396,-4.6446,-4.6456,-4.6465,-4.6578,-4.6601,-4.6621,0,0,0,0,0,0,-4.6576,-4.652,-4.648,-4.654,-4.6527,-4.6482,-4.6521,-4.6471,-4.6472,-4.6461,-4.6392,-4.6386,-4.6441,-4.6423,-4.6374,-4.648,-4.6405,-4.6415,-4.649,-4.6512,-4.6529,-4.6533,-4.6273,0,0,0,0,0,-4.661,-4.6629,-4.6579,-4.6638,-4.6633,-4.6579,-4.6585,-4.6543,-4.6526,-4.652,-4.649,-4.6478,-4.649,-4.65,-4.6508,-4.6583,-4.6575,-4.6623,-4.6641,-4.6656,-4.6666,-4.6706,-4.6727,-4.65,-4.65,-4.6499,0,0,-4.6679,-4.6651,-4.6668,-4.6661,-4.6646,-4.6669,-4.6574,-4.6602,-4.6618,-4.6524,-4.6566,-4.6544,-4.6525,-4.6587,-4.6612,-4.6573,-4.6727,-4.6667,-4.668,-4.6681,-4.6718,-4.674,-4.6759,-4.6506,-4.6505,-4.6504,0,0,-4.6818,-4.6798,-4.6846,-4.6833,-4.6811,-4.6774,-4.6786,-4.6749,-4.6731,-4.6772,-4.6703,-4.6722,-4.6744,-4.6734,-4.6732,-4.6871,-4.6818,-4.6876,-4.6969,-4.701,-4.7028,-4.7043,-4.7094,-4.7113,-4.6886,-4.6886,-4.6886,0,-4.6908,-4.6938,-4.6877,-4.6909,-4.6909,-4.6825,-4.6874,-4.6864,-4.6847,-4.685,-4.6806,-4.6834,-4.6815,-4.6874,-4.6908,-4.6909,-4.6922,-4.6879,-4.703,-4.7045,-4.7058,-4.7107,-4.7126,-4.6894,-4.6893,-4.6892,-4.6891,0,-4.7051,-4.7073,-4.7114,-4.71,-4.7105,-4.7145,-4.7091,-4.7104,-4.7062,-4.7031,-4.7075,-4.705,-4.7053,-4.7064,-4.7023,-4.7118,-4.7095,-4.7042,-4.6965,-4.7089,-4.7133,-4.7151,-4.6904,-4.6901,-4.6899,-4.6897,0,0,-4.7263,-4.7216,-4.7232,-4.7225,-4.7196,-4.7213,-4.7251,-4.7253,-4.7267,-4.7258,-4.7289,-4.7311,-4.7263,-4.7261,-4.7219,-4.7254,-4.7368,-4.7196,-4.7195,-4.7231,-4.7473,-4.7515,-4.7537,-4.7333,-4.7336,-4.7338,-4.7476,0,-4.7396,-4.7456,-4.7403,-4.7475,-4.7496,-4.7418,-4.7451,-4.7438,-4.7411,-4.7426,-4.7396,-4.7414,-4.7347,-4.7346,-4.7377,-4.7348,-4.7416,-4.7337,-4.7363,-4.7364,-4.7371,-4.7559,-4.7602,-4.7733,-4.7492,-4.7495,-4.7497,0,-4.7557,-4.7557,-4.7631,-4.7599,-4.7606,-4.7637,-4.7637,-4.7651,-4.7636,-4.7614,-4.7613,-4.7562,-4.7599,-4.7524,-4.7575,-4.7522,-4.753,-4.7517,-4.7521,-4.7522,-4.7439,-4.7567,-4.7773,-4.7793,-4.7523,-4.7521,-4.7519,0,-4.7707,-4.7725,-4.7772,-4.7769,-4.7732,-4.7756,-4.7742,-4.7723,-4.7729,-4.7729,-4.7733,-4.7737,-4.774,-4.7746,-4.7699,-4.7648,-4.7757,-4.7677,-4.7741,-4.7743,-4.7768,-4.7767,-4.7979,-4.7771,-4.7771,-4.7771,-4.777,0,-4.7861,-4.791,-4.7839,-4.7868,-4.7922,-4.7861,-4.7916,-4.7894,-4.7878,-4.7903,-4.7835,-4.786,-4.7796,-4.7815,-4.7778,-4.7827,-4.7828,-4.7813,-4.7803,-4.782,-4.7822,-4.7824,-4.7814,-4.7776,-4.7775,-4.7774,-4.7773,0,-4.8037,-4.7991,-4.8038,-4.8,-4.7992,-4.8034,-4.8002,-4.8028,-4.7997,-4.803,-4.8034,-4.7986,-4.8005,-4.7958,-4.797,-4.7946,-4.8017,-4.7992,-4.8022,-4.8015,-4.8083,-4.8078,-4.8305,-4.8332,-4.8106,-4.8108,-4.811,0,-4.8139,-4.8174,-4.8141,-4.8153,-4.8143,-4.8162,-4.8168,-4.8111,-4.812,-4.8107,-4.8136,-4.8149,-4.8157,-4.8191,-4.8158,-4.8168,-4.8143,-4.8222,-4.8144,-4.8161,-4.8146,-4.8145,-4.815,-4.8239,-4.8242,-4.8244,-4.8246,0,-4.8324,-4.83,-4.8311,-4.8316,-4.8325,-4.8325,-4.8321,-4.8335,-4.8273,-4.8288,-4.8306,-4.8313,-4.8326,-4.8341,-4.8343,-4.833,-4.8279,-4.8271,-4.8286,-4.8304,-4.8321,-4.8314,-4.8068,-4.8266,-4.8264,-4.8262,-4.8261,-4.826,-4.8467,-4.8496,-4.8478,-4.8493,-4.8484,-4.8482,-4.8506,-4.8479,-4.8493,-4.8499,-4.8464,-4.8491,-4.8477,-4.8475,-4.8468,-4.849,-4.8454,-4.8476,-4.8482,-4.8489,-4.8501,-4.8317,-4.849,-4.8489,-4.8488,-4.8488,-4.8488,0,-4.865,-4.8635,-4.865,-4.8646,-4.8659,-4.8609,-4.8603,-4.8617,-4.8641,-4.8632,-4.8642,-4.8665,-4.868,-4.8649,-4.8659,-4.8683,-4.866,-4.8688,-4.8686,-4.8684,-4.8531,-4.8517,-4.8706,-4.8706,-4.8706,-4.8706,-4.8706,-4.8706,-4.8747,-4.8795,-4.8769,-4.8813,-4.8797,-4.8823,-4.8824,-4.8823,-4.8815,-4.8844,-4.8856,-4.8836,-4.8819,-4.8828,-4.884,-4.8831,-4.8839,-4.8875,-4.8858,-4.8716,-4.8695,-4.8674,-4.8661,-4.8877,-4.8877,-4.9009,-4.9011,-4.9012]},{"header":{"parameterUnit":"m.s-1","parameterCategory":1,"la1":30.2991,"la2":30.254,"lo1":-89.0895,"lo2":-89.0444,"dy":0.0017,"dx":0.0017,"nx":28,"ny":28,"refTime":"2024-05-30T03:00:00:Z","depth":0,"parameterNumber":3,"parameterNumberName":"V-component_of_WINDS"},"data":[0,0,0,0,0,0,0,0,0,0,0,0,0,0,0,0,0,0,0,0,0,0,0,0,0,0,0,0,0,0,0,0,0,0,0,0,0,0,0,0,0,0,0,0,0,0,0,0,0,0,0,0,0,0,0,0,0,0,1.247,1.247,0,1.245,1.2449,1.2449,1.2451,1.2452,1.2452,1.2452,1.243,1.2429,1.2428,0,0,0,0,0,0,0,0,0,0,0,0,0,1.251,1.2509,1.247,1.247,1.247,1.245,1.2449,1.2449,1.2451,1.2452,1.2452,1.2452,1.243,1.2429,1.2428,0,0,0,0,0,0,0,0,0,0,0,0,0,1.2492,1.2509,1.247,1.2468,1.2468,1.245,1.2449,1.2449,1.2451,1.2452,1.2452,1.2453,1.243,1.2429,1.2428,1.2409,0,0,1.2423,1.2423,0,0,0,0,0,0,0,0,1.2493,1.249,1.2469,1.2468,1.2468,1.2454,1.2455,1.2436,1.2451,1.2457,1.2452,1.2453,1.2437,1.2435,1.243,1.2408,1.2407,1.2423,1.2422,1.2422,1.2421,0,0,0,0,0,0,0,1.2494,1.2491,1.2462,1.2468,1.2468,1.2468,1.2466,1.2452,1.2445,1.2457,1.2457,1.2455,1.2437,1.2431,1.243,1.2407,1.2423,1.2422,1.2421,1.2421,1.237,1.237,0,0,0,0,0,0,1.2496,1.2492,1.2463,1.2461,1.2482,1.2467,1.2465,1.2458,1.2445,1.2443,1.2454,1.2455,1.2434,1.2431,1.2429,1.2407,1.2422,1.2421,1.242,1.2371,1.237,1.237,0,0,0,0,0,0,1.2497,1.2493,1.2463,1.2477,1.2473,1.2466,1.2458,1.2457,1.2452,1.2443,1.2442,1.245,1.2434,1.2431,1.2415,1.2406,1.242,1.2419,1.2371,1.2371,1.237,1.2363,0,0,0,0,0,0,1.2498,1.2493,1.2486,1.2477,1.2472,1.245,1.2457,1.2456,1.2449,1.245,1.2439,1.2437,1.2434,1.2417,1.2413,1.2405,1.2418,1.2372,1.2371,1.237,1.2364,1.2362,1.2361,0,0,0,0,0,1.2499,1.2485,1.2486,1.2482,1.2463,1.2449,1.2447,1.2444,1.2449,1.2442,1.2436,1.2437,1.2408,1.2415,1.2411,1.2402,1.2373,1.2371,1.237,1.2365,1.2363,1.2361,0,0,0,0,0,0,1.2493,1.2483,1.2485,1.2467,1.2459,1.2449,1.244,1.2441,1.2431,1.2432,1.2429,1.2426,1.241,1.2404,1.2412,1.2384,1.2391,1.2389,1.2388,1.2386,1.2384,1.2385,1.2417,0,0,0,0,0,1.249,1.2479,1.2471,1.2456,1.2452,1.2447,1.2441,1.2439,1.2431,1.2427,1.2421,1.2412,1.2401,1.2393,1.2382,1.2364,1.2361,1.2356,1.2354,1.2353,1.2351,1.2341,1.2338,1.2366,1.2366,1.2366,0,0,1.2482,1.2476,1.2469,1.2455,1.2448,1.2437,1.2444,1.2432,1.2424,1.2425,1.2409,1.2405,1.2395,1.2377,1.2369,1.2372,1.2343,1.2351,1.235,1.2349,1.2339,1.2337,1.2335,1.2365,1.2365,1.2365,0,0,1.2463,1.2457,1.2444,1.2438,1.2429,1.2426,1.2423,1.2414,1.2411,1.2395,1.2397,1.2387,1.2368,1.2361,1.2355,1.2335,1.2335,1.2332,1.2322,1.2313,1.231,1.2308,1.2301,1.2299,1.233,1.233,1.233,0,1.2455,1.2438,1.2437,1.2425,1.2419,1.2421,1.2408,1.2402,1.239,1.2385,1.2389,1.2366,1.2359,1.2341,1.2336,1.2331,1.2327,1.2332,1.2311,1.2309,1.2307,1.23,1.2297,1.2329,1.2329,1.2329,1.2329,0,1.2429,1.2417,1.2408,1.2397,1.239,1.2377,1.2374,1.2367,1.2367,1.2364,1.2348,1.2341,1.2329,1.2325,1.2324,1.2306,1.2308,1.2312,1.2318,1.2304,1.2297,1.2295,1.2329,1.2329,1.2329,1.2329,0,0,1.2403,1.2393,1.2389,1.2384,1.2375,1.2367,1.2355,1.2344,1.2338,1.233,1.2319,1.2304,1.2308,1.2301,1.23,1.2291,1.2276,1.2296,1.2296,1.2292,1.2256,1.2253,1.225,1.2278,1.2277,1.2277,1.2257,0,1.2382,1.2361,1.2361,1.2341,1.2331,1.2334,1.2324,1.2317,1.2314,1.2305,1.2302,1.2291,1.2296,1.2292,1.2284,1.228,1.2269,1.2281,1.2267,1.2267,1.2269,1.2247,1.2243,1.2225,1.2254,1.2254,1.2254,0,1.2355,1.2347,1.2327,1.232,1.2316,1.2306,1.2297,1.2288,1.2281,1.228,1.2273,1.2274,1.2262,1.227,1.2253,1.2261,1.2256,1.2253,1.2252,1.225,1.2258,1.2243,1.2219,1.2216,1.225,1.225,1.225,0,1.2337,1.2322,1.2308,1.2304,1.2296,1.2289,1.2286,1.2279,1.2273,1.2265,1.2261,1.2252,1.2246,1.2239,1.2237,1.2243,1.222,1.2228,1.2218,1.2218,1.2212,1.2212,1.2185,1.221,1.221,1.221,1.221,0,1.2314,1.2301,1.23,1.2291,1.2278,1.2278,1.2264,1.2261,1.2255,1.2246,1.2248,1.224,1.2238,1.2229,1.2228,1.2214,1.2211,1.221,1.2209,1.2209,1.2209,1.2204,1.2205,1.2209,1.2209,1.2209,1.2209,0,1.2291,1.229,1.2275,1.227,1.2268,1.2258,1.2253,1.2245,1.2243,1.2232,1.2229,1.2226,1.2215,1.2213,1.22,1.22,1.2183,1.2184,1.2185,1.2185,1.2175,1.2176,1.2144,1.214,1.2168,1.2167,1.2167,0,1.2276,1.2266,1.226,1.2255,1.2251,1.2242,1.2236,1.2236,1.223,1.2222,1.2215,1.2205,1.2197,1.218,1.2176,1.2167,1.2168,1.2157,1.2166,1.2166,1.2167,1.2167,1.2166,1.2155,1.2155,1.2154,1.2154,0,1.2248,1.2248,1.224,1.2232,1.2225,1.2219,1.2213,1.2208,1.2208,1.2201,1.2191,1.2184,1.2173,1.2163,1.2154,1.215,1.2152,1.2152,1.2149,1.2148,1.2149,1.2148,1.218,1.2152,1.2152,1.2152,1.2153,1.2153,1.2228,1.222,1.2215,1.2206,1.2202,1.2196,1.2188,1.2186,1.2178,1.2169,1.217,1.2159,1.2153,1.2141,1.2137,1.2128,1.2131,1.2127,1.2126,1.2125,1.2124,1.2151,1.2127,1.2127,1.2127,1.2127,1.2127,0,1.22,1.2197,1.2189,1.2181,1.2174,1.2178,1.2172,1.2166,1.2156,1.2151,1.2144,1.2133,1.2124,1.212,1.2111,1.2105,1.2106,1.2102,1.2102,1.2101,1.2121,1.2125,1.2102,1.2102,1.2102,1.2102,1.2102,1.2102,1.2184,1.2171,1.2171,1.2156,1.2154,1.2143,1.2139,1.2135,1.2131,1.2118,1.2111,1.2109,1.2105,1.2096,1.2088,1.2087,1.2083,1.2079,1.2079,1.2097,1.21,1.2102,1.2105,1.2079,1.2079,1.206,1.2059,1.2059]}]]